Station BHRI3 - Burns Harbor, IN Image indicating link to RSS feed of recent meteorological observations for station BHRI3


Conditions at BHRI3 as of
(6:40 am CDT)
1140 GMT on 04/19/2024:
     

Click on the graph icon in the table below to see a time series plot of the last five days of that observation.

5-day plot - Wind Direction Wind Direction (WDIR): NW ( 320 deg true )
5-day plot - Wind Speed Wind Speed (WSPD): 9.9 kts
5-day plot - Wind Gust Wind Gust (GST): 14.0 kts
5-day plot - Atmospheric Pressure Atmospheric Pressure (PRES):30.09 in
5-day plot - Air Temperature Air Temperature (ATMP): 45.0 °F
5-day plot - Wind Chill Wind Chill (CHILL): 39.2 °F
5-day plot - Wind Speed at 10 Meters Wind Speed at 10 meters (WSPD10M): 9.7 kts
5-day plot - Wind Speed at 20 Meters Wind Speed at 20 meters (WSPD20M): 11.7 kts
5-day plot -  Wind Speed, Wind Gust and Atmospheric Pressure Combined plot of Wind Speed, Gust, and Air Pressure
Previous observations
TIME
(CDT)
5-day plot - Wind Direction
WDIR
 
5-day plot - Wind Speed
WSPD
kts
5-day plot - Wind Gust
GST
kts
5-day plot - Wave Height
WVHT
ft
5-day plot - Dominant Wave Period
DPD
sec
5-day plot - Average Wave Period
APD
sec
5-day plot - Mean Wave Direction
MWD
 
5-day plot - Atmospheric Pressure
PRES
in
5-day plot - Pressure Tendency
PTDY
in
5-day plot - Air Temperature
ATMP
°F
5-day plot - Water Temperature
WTMP
°F
5-day plot - Dew Point
DEWP
°F
5-day plot - Salinity
SAL
psu
5-day plot - Visibility
VIS
nmi
5-day plot - Tide (above MLLW)
TIDE
ft
2024-04-19 06:30 am NW 9.9 13.0----30.10- 45.1-----
2024-04-19 06:20 am NW 8.9 11.1----30.10- 45.3-----
2024-04-19 06:10 amNNW 8.0 11.1----30.10- 45.3-----
2024-04-19 06:00 am NW 8.0 12.0----30.09+0.08 45.1-----
2024-04-19 05:40 amNNW 8.9 14.0----30.07- 45.3-----
2024-04-19 05:30 amNNW 9.9 14.0----30.07- 45.7-----
2024-04-19 05:20 amNNW 8.9 12.0----30.06- 45.7-----
2024-04-19 05:10 amNNW 8.9 14.0----30.06- 46.0-----
2024-04-19 05:00 amNNW 9.9 15.0----30.05+0.06 46.2-----
2024-04-19 04:40 am NW 11.1 15.0----30.04- 46.8-----
2024-04-19 04:30 am NW 9.9 14.0----30.04- 47.1-----
2024-04-19 04:20 am NW 8.9 12.0----30.04- 47.3-----
2024-04-19 04:10 am NW 8.0 9.9----30.04- 47.1-----
2024-04-19 04:00 am NW 5.1 7.0----30.03+0.04 46.4-----
2024-04-19 03:40 amNNW 2.9 5.1----30.02- 45.5-----
2024-04-19 03:30 amNNW 2.9 5.1----30.02- 45.1-----
2024-04-19 03:20 amNNW 2.9 4.1----30.02- 45.1-----
2024-04-19 03:10 amNNW 2.9 5.1----30.01- 45.1-----
2024-04-19 03:00 amNNW 4.1 5.1----30.01+0.03 44.8-----
2024-04-19 02:40 amNNW 4.1 6.0----30.01- 44.6-----
2024-04-19 02:30 amNNW 4.1 5.1----30.00- 44.6-----
2024-04-19 02:20 amNNW 4.1 6.0----29.99- 44.4-----
2024-04-19 02:10 am N 4.1 6.0----29.99- 44.4-----
2024-04-19 02:00 am N 5.1 7.0----29.99-0.01 44.4-----
2024-04-19 01:40 amNNE 7.0 8.0----29.98- 44.4-----
2024-04-19 01:30 amNNE 6.0 8.0----29.99- 44.4-----
2024-04-19 01:20 amNNE 7.0 8.0----29.99- 44.4-----
2024-04-19 01:10 amNNE 6.0 8.0----29.99- 44.6-----
2024-04-19 01:00 am N 6.0 8.0----29.99-0.03 44.6-----
2024-04-19 12:40 am N 7.0 8.0----29.99- 45.0-----
2024-04-19 12:30 amNNE 6.0 8.0----29.99- 44.6-----
2024-04-19 12:20 amNNE 6.0 8.0----29.99- 44.6-----
2024-04-19 12:10 am N 7.0 8.9----29.99- 44.8-----
2024-04-19 12:00 amNNE 8.0 8.9----29.98-0.03 45.1-----
2024-04-18 11:40 pm NE 8.0 11.1----29.99- 44.8-----
2024-04-18 11:30 pm NE 8.9 9.9----29.99- 44.8-----
2024-04-18 11:20 pm NE 8.9 9.9----29.99- 44.6-----
2024-04-18 11:10 pm NE 8.0 8.9----29.99- 44.6-----
2024-04-18 11:00 pm NE 7.0 8.9----30.00+0.00 44.8-----
2024-04-18 10:40 pm NE 8.0 9.9----29.99- 45.0-----
2024-04-18 10:30 pm NE 8.0 8.0----30.00- 45.0-----
2024-04-18 10:20 pm NE 8.0 9.9----30.00- 45.0-----
2024-04-18 10:10 pm NE 8.9 9.9----30.00- 45.3-----
2024-04-18 10:00 pm NE 8.0 8.9----30.02+0.02 45.1-----
2024-04-18 09:40 pmNNE 6.0 7.0----30.01- 45.5-----
2024-04-18 09:30 pmNNE 5.1 7.0----30.01- 45.7-----
2024-04-18 09:20 pm NE 6.0 7.0----30.01- 45.5-----
2024-04-18 09:10 pm NE 6.0 8.0----30.01- 45.7-----
2024-04-18 09:00 pmNNE 7.0 8.0----30.01+0.01 45.9-----
2024-04-18 08:40 pm NE 6.0 8.0----30.00- 46.4-----
2024-04-18 08:30 pm NE 6.0 9.9----30.01- 46.6-----
2024-04-18 08:20 pmNNE 8.9 11.1----29.99- 46.6-----
2024-04-18 08:10 pmNNE 8.9 9.9----29.99- 46.9-----
2024-04-18 08:00 pmNNE 7.0 8.0----30.00+0.01 46.9-----
2024-04-18 07:40 pmNNE 6.0 8.0----30.00- 46.9-----
2024-04-18 07:30 pmNNE 7.0 8.0----29.99- 46.8-----
2024-04-18 07:20 pm N 6.0 7.0----30.00- 46.8-----
2024-04-18 07:10 pmNNE 6.0 7.0----30.00- 46.8-----
2024-04-18 07:00 pm N 5.1 6.0----30.00+0.02 46.8-----
2024-04-18 06:40 pmNNE 6.0 7.0----29.99- 46.9-----
2024-04-18 06:30 pm N 5.1 6.0----30.01- 47.1-----
2024-04-18 06:20 pm N 4.1 7.0----30.01- 47.3-----
2024-04-18 06:10 pmNNE 5.1 6.0----30.00- 47.7-----
2024-04-18 06:00 pmNNE 5.1 7.0----30.00+0.02 47.8-----
2024-04-18 05:40 pmNNE 6.0 7.0----30.00- 47.7-----
2024-04-18 05:30 pmNNE 6.0 7.0----30.00- 47.7-----
2024-04-18 05:20 pm N 5.1 7.0----30.01- 47.7-----
2024-04-18 05:10 pmNNE 5.1 6.0----30.00- 48.0-----
2024-04-18 05:00 pm NE 5.1 6.0----29.99-0.06 48.7-----
2024-04-18 04:40 pm NE 5.1 5.1----29.99- 49.1-----
2024-04-18 04:30 pm NE 5.1 6.0----29.98- 49.1-----
2024-04-18 04:20 pm NE 6.0 8.0----29.98- 49.3-----
2024-04-18 04:10 pmNNE 6.0 7.0----29.98- 49.1-----
2024-04-18 04:00 pmNNE 5.1 7.0----29.98-0.08 49.6-----
2024-04-18 03:40 pm NE 7.0 8.0----29.97- 50.7-----
2024-04-18 03:30 pm NE 7.0 8.0----29.97- 51.3-----
2024-04-18 03:20 pm NE 5.1 6.0----29.98- 52.0-----
2024-04-18 03:10 pm NE 5.1 8.0----30.00- 51.6-----
2024-04-18 03:00 pm NE 7.0 8.9----29.98-0.16 51.3-----
2024-04-18 02:40 pmENE 7.0 8.0----29.98- 50.7-----
2024-04-18 02:30 pmENE 6.0 8.9----30.00- 51.1-----
2024-04-18 02:20 pm E 7.0 8.0----30.02- 50.9-----
2024-04-18 02:10 pmENE 6.0 6.0----30.03- 50.9-----
2024-04-18 02:00 pmENE 5.1 5.1----30.05-0.07 51.4-----
2024-04-18 01:40 pm NE 5.1 7.0----30.07- 50.5-----
2024-04-18 01:30 pmENE 8.0 9.9----30.05- 50.5-----
2024-04-18 01:20 pm N 5.1 6.0----30.10- 50.4-----
2024-04-18 01:10 pmENE 6.0 7.0----30.07- 51.4-----
2024-04-18 01:00 pm E 6.0 8.0----30.06-0.08 50.7-----
2024-04-18 12:40 pmENE 5.1 5.1----30.09- 52.0-----
2024-04-18 12:30 pm NE 2.9 2.9----30.12- 51.3-----
2024-04-18 12:20 pm NE 2.9 2.9----30.12- 49.8-----
2024-04-18 12:10 pm N 1.9 2.9----30.13- 48.7-----
2024-04-18 12:00 pm N 1.9 2.9----30.14+0.04 48.7-----
2024-04-18 11:40 am NE 1.9 2.9----30.13- 50.2-----
2024-04-18 11:30 am NE 1.9 2.9----30.13- 50.5-----
2024-04-18 11:20 amENE 1.9 2.9----30.14- 50.7-----
2024-04-18 11:10 amENE 2.9 4.1----30.13- 50.7-----
2024-04-18 11:00 amENE 2.9 4.1----30.12+0.03 50.5-----
2024-04-18 10:40 amENE 2.9 4.1----30.13- 50.7-----
2024-04-18 10:30 amENE 4.1 4.1----30.13- 50.9-----
2024-04-18 10:20 amNNE 2.9 2.9----30.14- 50.2-----
2024-04-18 10:10 amNNE 1.9 2.9----30.14- 50.5-----
2024-04-18 10:00 amNNE 1.9 2.9----30.14+0.04 52.2-----
2024-04-18 09:40 amENE 1.0 1.9----30.12- 51.4-----
2024-04-18 09:30 am NE 1.9 2.9----30.12- 50.2-----
2024-04-18 09:20 am NE 1.9 2.9----30.11- 50.0-----
2024-04-18 09:10 am NE 2.9 4.1----30.11- 50.4-----
2024-04-18 09:00 am NE 2.9 4.1----30.10+0.04 50.4-----
2024-04-18 08:40 am NE 2.9 4.1----30.09- 50.5-----
2024-04-18 08:30 am NE 2.9 2.9----30.09- 51.1-----
2024-04-18 08:20 am NE 2.9 2.9----30.09- 51.8-----
2024-04-18 08:10 am E 1.9 1.9----30.09- 51.8-----
2024-04-18 08:00 am NE 1.0 1.9----30.09+0.04 51.3-----
2024-04-18 07:40 am- 0.0 1.9----30.08- 49.6-----
2024-04-18 07:30 am- 0.0 1.9----30.09- 49.5-----
2024-04-18 07:20 am- 0.0 1.0----30.10- 49.3-----
2024-04-18 07:10 am- 0.0 2.9----30.09- 49.6-----
2024-04-18 07:00 am W 1.9 2.9----30.10+0.09 50.0-----